CAPE
0 0 0 0 0 0 0 0 0 0 0 0 0 0 0 0 0 0 0 0 0 0
0 0 0 0 0 0 0 0 0 0 0 0 0 0 0 0 0 0 0 0 0 0
0 0 0 0 0 0 0 0 0 0 0 0 0 0 0 0 0 0 0 0 0 0
0 0 0 0 0 0 0 0 0 0 0 0 0 0 0 0 0 0 0 0 0 0
0 0 0 0 0 0 0 0 0 0 0 0 0 0 0 0 0 0 0 0 0 0
0 0 0 0 0 0 0 0 0 0 0 0 0 0 0 0 0 0 0 0 0 0
0 0 0 0 0 0 0 0 0 0 0 0 0 0 0 0 0 0 0 0 0 0
0 0 0 0 0 0 0 0 0 0 0 0 0 0 0 0 0 0 0 0 0 0
0 0 0 0 0 0 0 0 0 0 0 0 0 0 0 0 0 0 0 0 0 0
0 0 0 0 0 0 0 0 0 0 0 0 0 0 0 0 0 0 0 0 0 0
0 0 0 0 0 0 0 0 0 0 0 0 0 0 0 0 0 0 0 0 0 0
0 0 0 0 0 0 0 0 0 0 0 0 0 0 0 0 0 0 0 0 1 7
0 0 0 0 0 0 0 0 0 0 0 0 0 0 0 2 2 0 1 0 7 5
0 0 0 0 0 0 0 0 0 0 0 0 0 0 0 2 2 3 7 14 6 3
CIN
-0 -0 -0 -0 -0 -0 -0 -0 -0 -0 -0 -0 -0 -0 -0 -0 -0 -0 -0 -0 -0 -0
-0 -0 -0 -0 -0 -0 -0 -0 -0 -0 -0 -0 -0 -0 -0 -0 -0 -0 -0 -0 -0 -0
-0 -0 -0 -0 -0 -0 -0 -0 -0 -0 -0 -0 -0 -0 -0 -0 -0 -0 -0 -0 -0 -0
-0 -0 -0 -0 -0 -0 -0 -0 -0 -0 -0 -0 -0 -0 -0 -0 -0 -0 -0 -0 -0 -0
-0 -0 -0 -0 -0 -0 -0 -0 -0 -0 -0 -0 -0 -0 -0 -0 -0 -0 -0 -0 -0 -0
-0 -0 -0 -0 -0 -0 -0 -0 -0 -0 -0 -0 -0 -0 -0 -0 -0 -0 -0 -0 -0 -0
-0 -0 -0 -0 -0 -0 -0 -0 -0 -0 -0 -0 -0 -0 -0 -0 -0 -0 -0 -0 -0 -0
-0 -0 -0 -0 -0 -0 -0 -0 -0 -0 -0 -0 -0 -0 -0 -0 -0 -0 -0 -0 -0 -0
-0 -0 -0 -0 -0 -0 -0 -0 -0 -0 -0 -0 -0 -0 -0 -0 -0 -0 -0 -0 -0 -0
-0 -0 -0 -0 -0 -0 -0 -0 -0 -0 -0 -0 -0 -0 -0 -0 -0 -0 -0 -0 -0 -0
-0 -0 -0 -0 -0 -0 -0 -0 -0 -0 -0 -0 -0 -0 -0 -0 -0 -0 -0 -0 -1 -2
-0 -0 -0 -0 -0 -0 -0 -0 -0 -0 -0 -0 -0 -0 -0 -1 -0 -0 -0 -0 -3 -2
-0 -0 -0 -0 -0 -0 -0 -0 -0 -0 -0 -0 -0 -0 -0 -1 -1 -0 -0 -3 -2 -2
-0 -0 -0 -0 -0 -0 -0 -0 -0 -0 -0 -0 -0 -0 -0 -2 -2 -2 -0 -0 -0 -1
Wind_Speed
23 24 26 29 31 33 34 35 36 36 36 37 37 38 38 39 39 40 41 41 43 43
24 27 29 30 32 33 34 35 36 37 38 38 38 39 40 40 42 42 42 44 44 45
26 28 30 32 34 35 35 35 36 37 38 39 40 41 42 42 43 43 44 45 46 46
27 30 31 33 34 35 35 36 37 37 39 40 41 42 43 44 44 46 47 46 47 48
29 31 33 34 35 36 36 36 37 38 39 41 42 43 45 45 46 47 49 49 49 50
30 32 34 35 36 35 35 36 37 39 40 42 44 45 44 45 48 48 48 49 50 50
31 33 35 35 34 34 35 37 39 40 41 43 44 44 45 48 48 49 48 48 48 49
32 34 34 34 34 35 37 38 39 41 42 43 43 43 47 48 49 50 50 48 48 47
32 34 34 34 36 37 38 39 41 42 43 44 44 45 47 48 50 49 49 49 48 47
34 34 34 36 37 39 40 41 43 43 44 45 45 45 47 48 48 48 47 47 48 47
32 33 35 37 39 41 42 43 43 44 44 45 45 46 46 48 47 48 47 46 46 45
32 35 37 39 41 42 42 43 44 44 46 46 46 45 46 48 49 48 48 45 44 43
33 35 38 40 41 41 41 43 44 45 45 44 44 44 46 48 47 49 47 45 43 43
34 36 38 40 40 42 45 45 46 45 44 42 43 44 46 47 47 47 47 45 44 43
Wind_Direction
357 354 351 349 346 343 341 340 340 341 342 341 340 339 339 337 336 334 332 330 328 326
353 350 347 346 344 343 342 341 340 341 340 340 340 339 338 336 334 334 332 330 328 326
350 348 345 344 343 343 343 343 342 341 341 340 339 338 337 335 334 332 331 330 328 326
348 346 344 343 343 343 343 343 342 341 340 339 338 338 336 335 334 332 331 330 328 326
345 344 343 343 343 343 342 343 342 341 340 339 338 337 336 335 334 332 330 330 328 326
343 343 343 342 342 343 343 342 341 340 339 338 337 337 336 335 333 332 331 330 328 327
343 343 342 343 343 343 342 341 340 340 339 338 337 337 336 335 334 332 331 331 329 328
343 343 344 343 343 342 341 340 340 338 338 338 338 337 336 335 334 333 331 331 330 330
342 343 343 342 341 341 340 339 338 338 338 337 337 337 337 336 334 333 332 331 331 331
341 341 341 341 340 339 339 338 338 338 337 337 336 337 337 337 335 334 334 333 332 332
341 341 340 340 339 339 338 338 338 337 337 336 337 337 338 337 337 335 335 334 334 333
341 340 339 339 339 339 338 338 337 337 336 336 337 339 339 338 337 336 335 336 336 335
341 340 339 339 339 339 339 337 338 336 337 337 338 339 339 339 338 336 337 337 337 336
341 340 340 339 340 339 337 337 337 337 339 339 339 339 340 340 339 338 337 337 337 337